ECMWFFLT2_500_spd_021.txt.gz
Wind_Speed
46 46 44 42 45 46 44 45 47 46 44 42 40 36 32 31 32 35 33 31 30 29 29 29 24 23 26 26 21 19 19 20 21 17 11 10 10 9 10 10 10 13 14 16 17 15 18 21 21 20 20 21 21 21 21 20 20 19 19 20 21 21 20
44 43 43 45 46 47 46 46 47 47 47 45 42 37 35 36 36 37 36 31 29 30 29 25 21 23 28 26 20 18 20 21 21 16 12 12 12 11 12 12 13 15 16 18 19 17 16 17 18 18 18 19 19 19 20 20 20 19 19 19 20 21 21
43 42 43 46 48 49 48 46 45 47 49 47 44 40 39 40 41 41 40 38 36 36 33 28 25 27 28 26 20 18 18 19 18 15 13 14 13 14 15 15 15 17 17 17 17 18 17 15 17 17 18 19 19 19 21 21 20 20 20 20 20 21 22
43 44 46 47 49 49 49 47 45 45 46 44 43 43 42 43 44 44 46 46 44 41 38 34 33 34 31 25 20 18 18 18 15 13 14 16 16 16 16 16 17 18 17 15 15 16 15 15 15 17 18 19 19 21 22 21 21 21 21 22 22 24 25
45 47 48 46 46 47 47 48 47 44 44 44 42 43 46 47 46 47 48 48 42 36 34 30 30 31 28 22 19 18 18 17 14 14 17 19 18 17 16 17 19 19 17 15 15 15 15 15 15 15 17 18 19 21 21 22 22 22 23 25 26 27 27
47 47 48 45 44 45 45 47 48 44 43 44 44 45 49 49 48 47 44 41 36 31 30 27 25 24 21 19 18 18 19 19 17 17 19 20 18 16 16 18 18 18 18 17 16 17 17 16 15 16 16 17 19 20 21 22 23 24 26 27 28 28 30
45 45 47 46 43 43 45 45 46 45 43 43 45 48 50 48 47 44 41 40 38 33 29 28 25 21 19 18 20 20 22 23 22 21 22 21 18 16 17 17 16 16 17 16 17 18 17 15 14 15 16 17 19 20 22 23 24 26 28 29 29 30 32
44 44 46 47 43 41 43 43 41 42 42 42 43 45 46 45 43 40 39 40 39 33 29 28 25 22 20 20 22 23 22 23 24 24 23 20 18 18 17 16 16 17 16 16 16 16 14 12 12 13 15 16 18 20 22 24 26 28 30 31 31 32 34
46 48 49 48 45 42 42 41 38 37 37 39 41 42 41 43 43 40 39 39 35 29 25 24 23 21 20 21 22 22 21 21 22 23 21 19 19 19 18 18 19 19 17 16 16 14 13 13 14 15 15 16 17 19 22 25 27 29 32 33 33 34 36
49 51 51 49 45 42 41 40 37 34 33 37 41 42 41 41 42 40 38 36 33 27 23 23 23 21 21 22 22 21 18 17 18 18 18 19 20 20 19 20 21 19 16 14 13 13 13 14 16 16 17 17 19 20 22 25 28 30 32 34 35 36 36
48 47 46 44 42 42 41 39 37 35 33 36 42 44 42 38 36 37 36 34 32 29 25 23 23 23 24 24 23 22 19 17 17 17 19 20 21 21 20 22 22 18 15 14 14 16 18 19 20 20 20 21 22 23 25 26 28 30 32 35 36 37 37
45 43 40 40 42 42 40 37 37 36 35 38 43 45 41 36 35 36 35 34 33 32 28 25 25 26 26 25 25 23 20 19 19 20 21 21 22 22 22 23 22 19 18 18 19 20 23 25 25 25 25 26 27 28 29 30 31 32 34 36 37 38 40
41 43 42 42 42 41 38 37 36 36 37 40 44 43 39 36 36 34 33 35 35 33 31 29 29 28 27 26 25 23 21 22 22 22 22 23 23 24 24 25 25 23 21 21 21 22 24 26 26 26 27 28 29 30 31 33 34 35 37 38 38 40 42
36 45 46 43 41 39 38 37 36 35 36 38 40 41 38 37 37 36 35 37 36 35 34 31 29 28 27 26 26 25 24 24 23 23 23 24 25 26 26 27 27 26 24 24 23 22 23 25 25 25 26 26 27 29 31 34 35 37 38 39 41 43 43
33 43 47 43 39 38 38 37 35 34 34 35 37 40 40 39 39 38 40 41 40 38 36 34 32 31 29 30 30 29 28 26 25 25 25 26 27 28 28 29 28 28 28 28 28 27 28 28 27 27 27 26 27 30 33 35 38 39 40 40 42 43 45
34 42 48 44 38 37 38 38 35 33 34 35 37 40 41 41 40 38 40 43 42 40 39 38 37 35 34 34 35 34 31 28 26 27 28 29 29 29 29 30 29 30 32 33 33 33 32 31 30 30 29 29 31 34 36 38 40 41 41 41 42 44 46
35 41 46 42 36 35 37 38 37 36 36 37 38 40 42 42 40 37 37 40 41 41 42 41 38 37 35 36 36 33 29 25 26 28 29 30 31 31 31 31 31 33 35 35 35 34 33 33 34 34 33 34 35 37 39 40 41 43 43 42 43 44 46
35 40 44 43 42 41 38 35 36 38 40 41 40 41 42 41 40 38 36 37 40 42 42 40 39 37 36 36 35 31 27 26 28 30 31 31 32 34 34 33 34 36 38 37 36 35 34 35 37 37 36 36 37 39 41 42 44 45 45 44 43 43 43
34 38 41 44 47 47 41 37 37 39 43 46 46 45 44 42 41 40 37 35 38 41 41 40 40 40 38 38 38 35 32 31 33 33 34 33 34 35 35 35 35 38 39 38 37 37 37 38 38 36 35 37 39 41 43 45 46 46 45 44 43 42 42
36 37 38 41 45 46 44 44 44 42 43 48 50 48 47 46 44 42 39 37 37 40 42 42 43 41 38 37 40 40 38 37 37 37 37 36 36 36 35 35 37 39 40 41 41 41 40 40 39 37 38 41 43 45 46 46 46 45 44 43 44 45 46
38 38 36 37 42 46 46 47 48 47 46 49 51 49 47 48 46 43 40 39 40 41 42 43 42 38 34 34 37 40 41 41 41 40 40 40 39 37 35 37 39 41 42 43 43 43 42 42 42 43 46 48 47 46 46 45 44 44 44 44 45 47 49
41 40 37 35 39 45 49 50 51 51 49 49 51 51 50 48 46 45 43 41 41 42 43 43 41 39 37 36 35 36 38 39 40 40 40 40 39 38 39 40 42 42 42 42 43 43 43 44 45 48 51 49 46 44 43 43 44 45 45 45 45 46 50
41 43 42 40 39 40 43 46 49 51 51 48 45 46 49 49 46 47 46 44 43 43 42 42 41 40 39 39 38 38 38 37 38 38 37 38 40 42 43 43 43 43 43 43 44 43 44 45 48 51 52 47 44 44 44 45 47 48 47 47 48 50 53
39 45 47 47 45 42 40 40 40 43 48 48 43 43 46 46 45 46 47 46 45 42 39 39 40 39 37 37 37 38 37 36 35 36 37 40 42 44 45 44 44 45 45 46 46 46 48 49 51 53 51 47 45 47 47 48 49 50 50 49 50 50 47
39 45 48 47 45 45 45 44 41 38 39 40 41 45 47 45 43 43 43 42 42 39 37 38 39 40 39 39 39 39 40 40 40 39 40 43 44 45 45 45 45 46 48 48 47 48 50 51 50 51 49 47 47 49 49 49 50 51 50 49 49 45 36
41 45 47 46 44 44 44 46 48 46 42 38 39 42 45 45 45 43 41 40 40 40 40 40 39 39 38 38 38 39 41 43 45 45 45 45 47 48 48 48 49 50 51 51 50 50 51 49 47 46 45 46 48 48 48 48 49 50 49 49 47 40 33
46 48 50 49 46 45 44 43 45 46 47 45 43 42 42 44 47 47 45 43 43 45 46 46 44 42 40 38 38 39 41 44 46 48 48 49 50 52 52 53 54 54 54 54 54 53 52 49 45 43 43 46 48 48 48 47 46 47 47 47 46 41 35
49 50 53 52 49 47 47 47 45 45 47 49 49 47 46 46 47 49 49 48 48 48 50 51 51 49 46 44 43 43 43 45 48 50 52 53 56 58 58 58 57 57 57 56 54 52 49 45 42 42 44 47 48 47 47 45 44 45 45 45 45 42 40
50 51 52 53 50 47 46 47 49 48 47 49 51 52 51 50 50 50 51 52 52 51 52 53 55 55 54 52 51 49 46 46 49 53 55 58 58 57 55 56 57 58 58 54 50 47 44 42 42 43 45 46 46 46 45 44 43 43 43 44 44 42 42
51 53 54 55 53 49 45 45 47 47 46 46 48 50 51 52 53 53 53 53 54 54 53 51 50 51 54 55 55 54 51 49 51 53 54 54 52 50 50 51 52 50 47 44 42 42 41 42 42 42 43 43 44 44 44 42 42 41 41 43 42 41 41
49 52 54 56 55 53 49 46 45 45 46 46 47 47 48 50 52 54 55 56 58 59 59 57 54 52 54 56 56 56 56 56 58 59 55 50 47 46 45 43 40 37 36 35 36 37 39 40 40 40 41 41 42 42 42 42 42 41 40 41 41 40 39
50 50 53 54 53 52 52 51 48 46 45 45 45 46 47 47 46 46 46 47 51 54 57 61 62 61 61 61 60 60 60 58 54 51 46 41 38 37 36 35 33 33 34 35 37 38 39 40 40 40 40 40 40 41 41 41 41 40 40 42 43 40 37
51 51 50 50 50 49 51 52 51 46 42 39 38 38 39 39 39 39 39 40 43 47 52 56 58 58 58 59 60 61 59 52 43 36 32 32 32 33 33 34 34 34 36 37 38 39 39 39 39 40 40 40 40 40 40 40 41 40 41 43 43 39 35
47 47 45 45 44 43 44 44 42 39 36 35 34 34 35 36 38 39 40 40 40 42 45 45 44 44 45 47 49 49 46 41 36 33 31 31 33 35 35 35 35 36 37 38 38 38 38 38 39 40 40 40 39 39 39 39 40 41 42 43 42 38 35
45 45 42 40 38 36 36 36 35 34 33 32 33 34 35 36 38 39 40 40 40 39 37 35 34 33 33 33 34 34 34 34 35 34 33 33 34 35 35 34 34 36 36 37 37 38 38 39 40 41 41 40 39 39 40 40 41 42 43 41 39 37 36
44 44 40 36 33 31 30 31 31 31 31 30 30 31 32 34 36 36 36 37 38 38 36 34 33 32 30 29 29 30 31 31 31 31 31 31 32 32 32 32 33 34 35 36 37 39 40 41 41 41 41 41 41 41 42 43 43 43 41 39 38 39 39
32 35 35 33 32 30 30 30 30 30 30 29 30 31 32 33 34 34 34 33 34 35 35 35 33 31 29 29 30 30 29 29 28 28 29 30 31 32 32 33 34 35 37 38 39 40 41 42 42 42 43 43 43 43 44 44 44 44 43 41 41 42 42

ECMWFFLT2_500_spd_024.txt.gz
Wind_Speed
52 53 54 53 54 52 49 50 51 51 48 46 45 44 43 42 42 42 41 40 37 33 29 24 20 20 18 17 16 14 13 13 13 15 15 15 13 11 11 10 8 9 10 10 12 12 13 13 13 14 16 19 21 21 20 19 18 17 17 18 19 20 20
54 55 54 53 55 55 54 52 50 50 50 49 48 48 47 46 46 45 44 41 39 36 32 27 22 19 17 16 15 13 12 12 13 14 16 16 14 12 13 13 12 12 12 12 13 13 14 14 14 14 14 17 19 19 18 17 17 16 17 19 19 19 20
55 56 56 55 55 58 58 54 52 53 54 52 50 50 50 49 49 48 46 43 41 39 34 29 24 19 15 14 12 11 12 13 12 14 17 18 16 15 14 13 14 14 13 14 15 15 15 14 14 13 13 14 15 17 18 18 18 18 19 19 19 20 21
55 56 59 58 56 59 61 59 57 58 57 54 52 50 50 50 50 49 47 47 46 41 36 31 26 21 17 16 16 16 16 16 15 15 18 17 15 15 14 14 15 14 13 14 15 16 16 16 15 13 11 11 12 14 16 17 18 18 18 19 19 21 22
54 56 58 56 55 59 62 62 62 61 59 56 54 53 52 51 51 51 50 50 48 42 36 31 26 22 20 18 18 18 18 18 18 17 17 15 14 15 15 16 16 14 12 13 14 15 15 16 16 14 12 11 12 13 13 14 16 16 17 18 20 22 24
52 55 54 52 54 59 62 63 62 60 58 56 55 55 54 53 53 53 52 52 49 43 37 31 26 24 22 21 20 19 19 21 21 18 16 15 16 16 17 18 17 14 12 13 14 14 14 14 14 12 11 10 11 12 13 14 15 16 18 19 21 23 25
50 50 51 52 54 57 61 63 62 59 58 57 56 56 54 53 54 54 54 53 50 45 38 33 29 26 24 25 25 22 20 21 20 17 15 16 16 17 19 19 17 14 14 15 15 14 13 12 11 10 9 9 11 12 14 15 16 17 19 21 22 24 26
49 47 48 52 55 57 61 63 61 60 58 56 56 55 53 54 56 54 54 55 52 46 40 36 31 28 26 27 27 23 20 19 18 17 18 18 17 18 20 20 18 16 15 15 14 12 10 8 7 7 9 11 12 14 16 17 18 19 21 23 24 26 27
48 49 49 53 57 59 60 60 59 60 58 56 56 55 52 55 57 54 54 55 50 44 41 37 31 30 29 28 27 26 22 19 19 20 20 18 17 19 21 21 19 17 15 14 12 8 6 5 6 7 10 12 14 16 18 19 20 22 24 26 28 30 31
49 52 53 54 56 58 58 58 59 59 58 57 57 56 55 56 56 54 54 53 48 42 40 37 33 32 31 27 26 26 22 20 20 20 18 17 17 18 20 20 19 16 14 13 11 9 7 6 8 9 11 13 16 18 20 21 23 24 26 29 30 32 34
43 49 50 50 51 54 56 56 56 57 57 57 57 59 59 57 55 54 51 47 45 42 39 36 34 32 28 24 23 22 21 20 20 18 17 17 17 18 20 19 17 15 13 12 11 11 11 10 11 11 13 15 16 18 21 23 24 26 27 29 30 33 35
34 40 43 45 48 51 53 52 53 54 56 57 58 60 58 55 55 53 46 42 42 40 36 33 32 31 27 23 20 20 21 21 20 20 20 19 19 19 19 19 17 15 15 14 12 12 13 12 12 12 13 15 17 19 21 23 24 26 27 29 32 34 36
29 33 38 43 46 49 52 52 52 54 56 58 58 57 54 54 55 50 41 39 40 34 28 27 29 29 26 21 19 19 20 22 22 22 21 19 19 19 18 18 18 16 16 16 15 14 13 13 13 14 15 18 20 20 21 23 25 27 28 31 33 35 37
28 30 34 40 45 49 52 54 54 54 56 58 58 55 52 52 53 48 41 40 37 30 25 25 27 29 27 22 21 21 21 23 24 23 21 19 18 18 18 19 19 18 18 18 18 18 18 17 16 16 18 19 21 21 21 23 25 27 30 33 34 37 39
31 31 31 37 44 48 52 55 55 55 55 56 55 54 51 49 48 45 42 41 37 29 25 26 27 29 29 26 25 24 23 25 25 24 23 23 22 20 20 20 21 20 19 20 21 22 22 22 21 20 20 21 22 22 23 25 26 27 30 33 36 38 40
36 34 32 35 40 45 52 57 58 56 55 53 51 51 50 49 47 45 44 43 38 31 28 28 28 29 30 30 29 28 26 27 27 26 25 25 24 22 22 23 23 22 21 22 23 25 26 27 26 24 24 24 24 24 25 26 26 26 30 34 37 39 41
40 37 34 34 36 42 51 58 59 57 56 53 50 49 48 49 49 48 47 43 37 31 30 30 29 30 31 32 31 31 30 30 30 29 28 26 24 23 24 25 24 23 23 23 25 27 29 31 30 28 28 28 28 27 27 27 27 29 32 36 38 39 40
42 37 35 35 37 43 50 55 57 58 56 53 51 49 48 47 48 48 45 41 37 34 34 33 31 31 31 31 31 32 33 33 33 32 31 29 27 26 27 27 26 25 25 26 28 30 32 34 35 33 32 32 32 31 31 31 32 33 35 38 39 39 39
43 38 36 38 40 42 47 53 56 57 54 51 49 49 47 46 46 45 42 40 38 37 36 35 34 32 31 30 31 33 34 34 34 34 32 30 30 30 30 29 28 27 29 31 33 35 37 38 38 36 36 36 36 35 36 36 36 37 38 40 40 41 41
42 39 37 39 39 39 45 53 55 55 52 49 47 46 46 45 44 42 40 38 36 35 35 35 35 33 32 31 31 33 35 36 36 35 33 32 32 31 30 30 31 32 34 36 38 38 38 38 38 38 39 40 39 39 39 39 39 40 42 42 42 43 44
41 40 39 38 36 36 44 52 55 53 50 47 45 44 44 44 42 39 38 37 36 35 35 35 35 35 34 34 35 36 37 38 38 37 35 34 33 32 32 33 34 35 36 38 39 39 39 39 40 41 42 42 42 42 41 41 42 44 45 45 45 46 46
42 41 39 38 36 35 41 49 53 53 49 45 44 42 42 43 42 39 38 38 37 37 37 37 37 38 37 35 36 38 40 40 40 39 36 33 32 33 34 34 34 36 38 39 40 41 42 43 44 43 43 42 43 44 44 45 46 47 48 49 49 49 48
42 41 41 39 36 34 36 42 48 51 48 46 45 43 41 41 41 40 40 40 39 39 40 39 39 40 39 36 35 36 38 38 38 38 36 34 33 33 33 34 36 37 38 40 41 43 44 45 45 44 43 43 45 46 48 49 49 50 52 52 51 51 50
42 41 41 40 36 33 33 36 41 45 47 48 46 44 41 41 41 42 43 44 44 44 44 43 41 42 41 38 36 36 34 34 35 35 35 34 33 33 34 37 39 39 40 42 43 44 44 45 45 44 44 45 48 50 51 51 51 53 53 52 52 53 51
41 39 40 40 37 33 33 34 36 40 45 48 47 44 41 40 41 42 43 44 45 47 49 46 43 43 42 39 38 37 34 32 32 33 34 35 36 38 40 42 42 43 44 45 44 43 44 45 46 47 48 49 51 52 52 52 53 53 52 52 53 53 49
36 36 38 39 37 34 33 33 35 38 42 44 44 43 42 42 43 43 43 43 44 46 48 49 47 46 44 40 38 36 33 31 32 34 36 39 40 42 42 43 45 46 47 47 44 44 45 47 49 51 52 53 53 53 54 54 54 53 51 52 51 49 48
30 30 35 38 38 37 36 35 37 40 40 40 40 40 40 42 44 44 43 42 43 43 44 48 51 50 46 42 40 39 40 40 40 40 40 40 41 41 42 44 46 46 47 47 47 47 49 50 52 52 53 55 55 54 54 54 53 51 49 49 48 47 47
28 29 34 38 39 39 39 38 39 42 42 41 40 38 36 38 39 40 39 37 35 35 35 38 44 46 44 43 43 42 42 43 43 43 43 44 45 46 46 47 47 46 47 48 49 50 51 51 52 54 56 58 57 55 53 52 51 48 47 46 46 46 46
32 32 35 38 40 41 42 43 43 43 44 44 43 40 38 37 36 34 35 34 32 30 30 32 36 39 40 39 38 36 36 37 39 41 44 46 48 49 49 49 48 48 49 51 53 53 52 52 53 55 57 58 56 53 50 48 47 45 44 44 44 44 44
36 36 37 39 41 41 43 46 47 46 44 42 41 41 40 38 37 35 33 33 32 31 31 32 32 33 33 33 32 32 33 34 37 39 42 45 47 49 50 49 50 51 54 55 55 54 54 57 58 57 56 54 50 46 44 42 41 41 41 42 42 42 42
36 36 38 41 44 44 43 44 47 48 46 42 40 40 41 40 40 39 38 36 34 34 33 33 33 33 34 34 33 32 33 35 38 41 43 46 48 49 49 50 52 56 57 54 52 54 57 59 58 54 50 46 43 42 41 40 39 39 40 41 41 41 41
39 37 37 39 45 47 44 41 41 42 42 41 39 39 40 41 41 40 40 40 39 38 37 38 38 37 37 36 35 34 37 40 44 46 49 50 51 51 53 54 55 57 57 54 52 52 51 49 46 43 41 41 42 42 41 40 39 40 40 40 40 40 40
46 45 40 36 40 44 42 39 40 41 38 38 39 39 40 41 42 41 41 42 43 43 43 44 44 43 42 40 39 40 42 44 47 50 53 55 54 55 56 57 56 57 58 57 55 50 44 40 38 38 38 40 42 41 40 39 39 39 39 39 40 40 41
46 46 42 37 39 43 40 36 39 42 41 38 39 41 42 42 43 43 43 43 42 43 43 44 44 44 43 40 38 39 40 41 43 44 46 48 49 49 49 48 46 47 48 47 46 44 41 40 39 39 39 39 39 39 38 38 38 38 39 39 40 40 41
40 40 39 39 40 43 44 41 39 40 41 39 37 39 41 43 45 46 46 44 42 41 41 40 40 40 39 37 36 37 38 39 39 37 35 35 36 36 36 35 34 35 35 37 38 39 39 38 37 36 36 37 37 37 38 38 39 39 40 40 40 41 41
35 37 40 43 43 44 46 48 45 42 41 41 42 42 40 40 43 45 43 40 37 36 36 36 35 35 35 35 35 36 37 38 38 36 34 32 32 32 32 31 31 31 32 34 35 35 35 34 34 35 35 36 37 38 39 39 40 40 40 40 41 42 43
35 38 40 41 41 42 45 48 47 45 44 44 47 50 48 44 42 41 38 34 32 31 32 32 32 32 33 33 34 35 36 37 37 36 35 34 32 31 31 31 32 32 32 33 33 34 34 35 35 36 38 38 39 39 39 40 40 41 41 42 43 45 46

ECMWFFLT2_500_spd_030.txt.gz
Wind_Speed
55 56 54 54 56 57 57 58 59 55 51 52 50 47 41 39 41 43 48 49 42 41 36 24 25 33 35 34 31 28 26 25 24 22 19 15 13 13 14 15 14 14 13 13 11 11 11 11 12 12 13 14 16 17 17 18 18 18 18 19 19 19 18
55 55 54 55 55 56 58 59 58 55 56 56 48 43 43 44 44 44 46 44 39 43 38 26 30 36 35 33 31 28 27 25 23 22 19 16 15 14 14 15 16 15 12 12 12 12 12 13 13 13 13 14 15 15 16 16 16 15 16 17 17 17 17
52 54 55 56 56 56 57 58 60 60 62 61 55 48 45 45 47 48 45 42 40 42 36 29 33 34 32 32 30 28 28 24 22 21 19 17 16 15 15 16 17 16 13 11 12 14 14 14 14 14 14 14 13 14 14 15 15 15 15 15 15 15 16
50 55 56 58 58 57 57 61 63 63 63 63 63 60 54 49 46 45 45 47 46 42 34 32 33 33 32 32 30 28 26 23 22 20 17 16 17 17 16 15 16 15 14 14 15 16 15 15 15 15 14 13 12 12 13 14 16 16 15 16 16 17 18
50 55 58 59 59 58 60 63 63 65 67 65 62 60 60 56 48 40 40 47 48 41 35 35 35 33 33 31 30 27 23 21 20 19 17 16 17 18 18 16 17 16 16 17 17 18 17 16 16 16 14 13 12 13 14 16 17 16 16 17 17 18 17
49 52 56 58 57 58 60 61 62 64 67 66 64 63 62 60 55 45 41 47 47 40 37 36 36 35 34 30 29 26 23 22 21 18 16 16 18 19 18 18 21 21 19 20 21 20 19 18 17 16 15 15 15 14 15 17 17 18 18 18 18 17 16
47 48 53 57 58 56 57 59 61 64 66 66 67 68 64 59 59 53 46 48 45 41 43 39 35 36 35 30 28 26 24 23 22 19 16 16 17 18 18 18 21 23 21 21 23 23 21 20 19 17 16 17 17 16 17 17 17 18 19 18 17 16 15
46 47 48 53 58 56 55 59 62 63 66 66 65 67 65 61 62 59 53 53 50 47 47 41 33 33 33 30 28 27 24 23 22 20 18 17 17 18 18 18 20 23 23 22 24 25 24 23 21 19 18 18 18 18 17 17 18 19 19 17 16 16 16
46 46 47 52 59 59 58 61 63 64 65 66 65 66 66 65 65 60 56 61 60 52 48 41 33 30 29 29 28 26 25 24 24 22 20 20 19 19 19 19 20 23 23 22 24 26 26 25 24 23 21 19 18 18 18 18 19 20 19 18 17 17 16
45 46 48 52 55 58 61 62 63 63 64 66 66 67 68 70 70 65 63 64 59 51 49 46 40 34 30 29 29 27 25 23 24 25 24 23 22 21 21 22 23 24 22 22 24 26 27 27 26 25 23 20 18 18 18 19 19 19 18 18 17 17 17
44 43 44 46 49 54 58 61 62 62 63 65 66 69 71 72 73 73 73 68 58 51 50 49 45 40 33 30 29 28 24 21 22 25 26 26 25 24 23 25 27 26 23 21 24 27 28 28 28 27 25 21 19 18 19 19 19 19 18 17 17 16 16
43 41 40 42 46 50 53 56 60 62 63 64 67 71 71 70 73 75 74 72 67 60 53 49 47 42 35 31 29 29 27 23 21 21 25 28 27 25 25 27 28 27 24 24 26 28 29 29 29 28 25 22 20 20 19 19 19 19 18 17 16 15 15
42 41 39 39 42 46 48 52 56 59 61 62 65 68 68 69 74 75 72 71 71 65 58 55 52 45 37 32 30 30 30 27 23 21 23 26 27 26 27 28 29 29 26 25 26 26 28 29 30 28 25 23 22 21 20 19 19 18 17 16 15 15 15
41 40 39 38 40 42 44 48 52 54 56 59 61 63 65 67 70 71 71 71 71 66 60 57 56 52 44 36 33 33 32 28 24 21 21 24 26 26 27 29 30 30 27 23 23 25 27 29 28 26 24 23 22 21 20 19 18 16 16 16 16 17 19
41 40 38 38 39 38 39 45 49 51 52 54 56 58 61 63 66 67 68 70 70 67 60 55 54 54 51 43 37 35 33 28 24 21 22 24 26 26 27 29 30 29 26 23 23 25 26 25 24 23 23 22 22 21 20 19 17 16 15 16 18 20 21
41 39 37 37 38 38 41 45 47 50 52 52 53 56 59 61 62 63 65 68 68 64 61 57 53 52 53 49 41 37 35 29 25 24 24 24 24 25 26 28 28 27 25 24 23 24 23 23 23 23 23 22 20 19 20 20 19 19 19 19 20 21 23
39 37 36 38 39 42 45 46 44 46 50 52 53 56 58 60 60 60 64 66 63 60 60 58 53 52 52 50 43 39 36 31 27 27 27 26 24 25 27 28 28 26 25 24 24 25 25 24 24 24 24 23 21 20 20 20 21 21 22 22 22 23 24
39 37 37 39 40 42 43 41 39 41 45 49 53 54 56 58 59 60 62 62 60 59 57 54 53 53 52 49 45 40 37 35 31 29 29 29 27 27 29 29 28 26 25 25 26 28 28 27 27 27 26 26 25 23 22 22 23 24 23 23 23 25 26
39 39 40 40 39 39 39 38 38 40 42 46 51 53 54 56 58 60 61 59 58 58 56 53 53 53 51 48 46 41 38 36 33 31 32 32 29 29 30 29 28 27 26 27 29 31 31 31 31 30 29 28 28 26 26 26 27 28 27 26 26 27 28
39 42 44 44 40 38 39 40 39 39 40 44 49 51 52 53 55 56 57 57 57 56 55 53 53 52 50 48 45 42 39 37 35 34 34 34 32 31 31 30 29 28 27 28 32 34 35 35 34 33 31 31 30 29 28 29 31 32 32 32 31 31 31
41 44 46 44 41 41 42 42 41 40 40 42 47 50 49 49 50 52 53 54 54 53 53 53 53 50 49 47 45 41 38 37 36 35 36 37 36 34 33 32 31 30 29 31 35 39 39 38 36 34 33 32 32 31 30 31 33 35 35 36 35 34 34
43 45 46 43 40 40 43 43 41 39 39 40 43 47 47 46 47 49 50 51 52 51 52 53 51 48 48 47 44 39 37 38 38 37 37 39 38 37 35 34 33 33 33 35 39 42 42 40 38 36 35 34 34 33 32 33 35 37 38 38 37 37 37
44 45 48 46 41 39 41 43 41 39 40 40 41 44 45 44 44 45 46 48 50 50 50 51 49 47 47 46 42 36 36 39 40 40 39 40 39 38 37 36 36 36 36 38 42 44 44 42 40 38 37 36 35 35 35 36 38 39 40 40 39 39 39
47 47 49 48 44 40 40 41 41 39 39 40 41 43 42 39 40 42 44 47 48 48 49 49 48 46 45 44 40 35 35 39 41 42 41 40 39 38 38 38 38 38 39 41 44 45 44 42 41 40 39 38 38 37 37 39 40 41 41 41 40 40 41
50 49 49 49 46 43 39 38 39 40 40 41 43 43 39 36 38 40 42 46 47 47 48 47 45 44 43 42 39 35 35 38 41 43 42 40 40 38 38 38 39 39 41 42 43 44 44 42 41 41 41 40 40 39 40 42 43 42 42 42 42 43 44
51 51 50 49 48 46 41 38 39 41 42 43 42 41 39 38 39 39 40 43 45 45 46 45 43 43 43 41 38 36 36 37 40 42 43 41 40 39 39 39 39 39 40 41 41 42 42 43 43 43 42 42 41 40 42 44 44 43 43 44 46 46 46
50 51 51 50 47 44 41 40 41 42 44 44 41 39 40 41 40 39 39 40 40 40 41 42 41 41 42 41 38 36 36 35 37 40 42 42 41 40 40 41 41 40 39 39 39 40 42 43 44 43 44 43 41 40 42 44 45 46 47 48 48 48 48
50 48 49 48 44 40 38 39 40 42 43 42 39 38 39 41 40 39 38 37 35 33 33 35 36 37 38 39 37 36 37 36 35 37 39 40 41 42 42 42 41 40 39 39 40 41 43 43 44 45 44 42 40 41 43 45 47 48 49 49 49 49 50
48 47 46 45 42 39 38 38 39 41 43 42 39 37 38 40 41 39 36 34 31 28 28 30 32 33 35 36 36 36 36 36 36 38 39 40 42 43 43 42 42 41 41 41 42 44 45 46 46 44 42 40 40 42 44 45 46 48 48 49 50 51 51
44 42 40 40 39 38 38 38 39 42 44 41 37 36 37 40 41 39 34 31 29 28 29 30 31 32 33 33 34 36 36 37 39 40 41 42 44 43 42 42 42 43 44 44 44 46 48 48 45 41 38 39 41 42 43 44 45 47 48 49 50 50 51
41 38 35 35 36 36 36 38 40 42 44 41 37 36 38 40 39 35 31 29 29 29 30 31 32 34 35 34 34 36 37 38 40 41 42 43 43 43 43 43 44 44 44 43 43 44 46 45 42 38 37 39 39 40 41 42 42 43 44 45 46 46 47
37 37 35 34 36 36 35 37 41 43 43 41 37 37 40 40 37 33 32 34 36 35 34 34 35 36 37 36 36 37 37 38 39 41 41 41 42 43 44 45 44 43 41 40 43 47 50 50 46 41 39 38 38 40 41 40 39 39 41 42 42 42 42
32 32 31 32 34 35 34 36 39 41 42 41 39 39 41 41 38 36 36 40 42 41 40 39 38 38 38 39 39 40 40 39 39 40 40 40 41 43 44 44 44 43 43 44 45 48 51 51 46 40 37 38 40 41 40 39 39 40 41 41 40 40 40
31 29 28 28 30 31 31 34 36 36 36 38 40 42 42 41 40 39 40 42 44 44 44 43 42 42 42 41 41 42 41 40 39 40 40 41 43 44 44 44 44 45 46 45 42 40 40 41 39 36 38 41 43 42 41 40 41 41 41 40 40 40 40
31 28 26 25 26 27 29 33 37 36 34 35 39 44 45 43 43 43 44 45 47 49 48 47 45 45 45 43 42 42 42 42 42 42 43 43 44 44 45 44 44 43 44 43 41 38 37 37 37 39 42 44 44 43 42 41 42 42 42 41 41 41 41
32 29 27 25 25 26 28 32 38 41 38 34 36 43 47 47 47 48 46 46 49 50 50 48 47 47 45 45 44 44 45 45 45 44 44 44 43 44 45 45 44 44 43 42 41 41 40 40 42 43 44 44 44 43 42 42 42 43 43 43 43 43 43
32 30 29 28 27 28 29 30 35 40 40 35 34 40 45 46 48 50 49 48 50 52 50 48 47 47 46 46 46 46 47 47 47 47 46 45 44 44 44 44 43 42 42 42 42 42 43 44 45 45 44 44 44 43 43 43 43 43 43 44 45 45 44

ECMWFFLT2_500_spd_033.txt.gz
Wind_Speed
35 39 43 47 50 52 52 50 52 53 51 47 41 35 31 29 32 35 32 32 34 34 35 34 33 34 36 35 32 25 20 20 20 17 18 20 18 16 12 8 8 10 12 14 14 14 15 16 16 15 14 14 14 15 15 15 15 15 16 17 19 20 21
34 38 41 46 52 51 49 49 50 51 51 49 43 38 35 33 35 35 33 33 31 33 40 39 36 35 33 33 33 26 21 23 22 19 20 21 18 17 14 11 10 11 12 13 12 11 11 13 13 12 12 12 12 13 13 13 14 14 16 17 18 19 19
35 38 40 44 51 52 50 47 46 50 56 55 47 44 42 38 38 36 31 31 33 36 38 34 36 37 32 30 31 27 23 25 26 28 26 24 22 20 16 14 12 11 13 14 13 11 10 12 13 12 12 12 11 12 12 13 14 15 16 17 17 17 18
37 37 39 42 47 52 53 50 44 44 53 55 50 51 50 41 37 37 33 32 34 35 33 30 31 31 31 32 30 27 28 25 23 28 28 25 23 20 16 18 17 14 13 14 14 14 13 13 14 14 14 13 11 12 12 13 14 16 17 17 17 17 17
40 37 36 40 43 48 53 56 51 42 43 49 50 51 51 44 40 36 34 36 36 30 26 28 30 27 28 30 27 29 31 23 19 25 27 25 22 19 20 21 21 19 17 15 16 16 16 16 16 16 15 14 13 13 12 13 15 16 17 17 17 17 17
40 37 33 35 39 43 48 54 57 50 41 41 46 47 45 46 48 42 34 33 34 27 24 28 33 29 27 25 24 28 26 23 26 24 22 23 24 22 23 23 23 24 22 20 18 17 18 19 17 16 16 15 14 13 13 14 15 15 17 17 17 18 17
33 35 34 34 35 39 41 45 52 55 49 42 43 49 48 47 49 47 39 34 30 24 22 26 31 30 28 27 28 32 29 26 26 20 19 27 26 24 25 24 23 25 25 25 24 21 20 20 19 19 18 17 15 15 15 15 15 16 17 18 18 19 18
28 30 34 33 33 38 40 41 47 52 54 51 51 52 50 46 47 46 44 42 38 30 25 23 23 25 26 30 34 37 35 30 25 20 23 30 25 26 27 24 24 26 27 27 26 23 21 21 21 21 21 19 18 17 17 17 17 17 17 17 17 18 18
32 32 36 36 36 39 42 46 49 50 50 54 58 55 47 48 52 47 43 45 43 38 34 29 23 26 27 29 36 38 36 35 31 25 27 27 25 29 29 25 26 27 26 25 24 21 20 20 21 22 23 22 21 20 19 18 18 19 17 15 16 17 18
39 38 39 39 37 38 40 45 48 46 45 50 58 57 52 55 59 52 47 46 39 34 37 35 31 34 35 31 34 37 37 37 35 32 31 26 26 30 28 26 27 28 26 24 23 21 19 19 22 23 24 24 23 22 21 20 19 18 17 16 16 18 20
40 37 35 36 35 32 34 41 43 43 43 44 47 52 56 58 58 56 57 55 44 33 31 32 34 39 40 36 37 38 37 36 38 41 40 33 29 31 29 28 29 28 27 25 24 24 21 20 23 24 25 25 24 23 23 22 20 18 17 17 17 19 21
37 35 32 35 36 30 28 35 39 41 42 41 41 46 53 55 54 57 59 58 55 48 36 29 32 39 42 39 40 40 36 36 41 44 41 37 35 33 32 31 31 30 29 27 26 28 25 23 23 24 25 25 25 25 25 24 22 19 18 18 18 20 20
36 36 35 35 33 29 29 32 34 36 39 42 43 45 50 52 52 56 58 54 57 61 52 40 35 36 39 37 38 41 38 38 40 40 37 37 38 37 36 35 33 32 31 29 29 29 27 26 25 25 26 26 26 25 25 25 23 20 19 19 18 19 19
39 38 36 36 32 28 30 32 30 30 34 38 43 45 46 49 51 55 58 56 55 57 57 53 46 38 32 32 34 40 42 41 38 36 37 37 38 41 41 38 35 34 32 31 31 30 29 28 27 27 27 26 25 25 25 26 24 21 19 18 18 18 17
42 38 35 38 39 34 32 32 30 30 32 34 37 41 43 45 48 52 54 57 58 54 53 58 57 50 42 35 32 35 40 42 41 40 41 39 39 42 43 40 38 35 33 33 32 31 30 29 29 27 26 25 25 25 26 25 24 21 19 18 18 18 17
42 39 36 37 39 38 39 38 34 33 34 33 32 37 42 44 47 51 52 55 59 58 54 56 61 61 59 55 48 44 43 42 43 45 44 40 39 41 42 42 41 37 34 34 32 31 31 31 30 27 26 25 24 24 24 23 22 21 19 19 20 19 19
41 38 37 34 34 38 42 42 38 37 37 34 32 35 38 40 41 44 50 55 56 56 55 57 61 63 64 62 59 57 55 49 46 45 43 39 38 40 41 43 43 39 35 33 32 31 32 32 31 29 26 24 23 23 22 21 20 20 19 20 21 22 22
42 38 36 33 35 39 39 35 35 38 39 37 36 36 36 37 37 37 40 44 45 46 50 55 58 60 61 60 56 56 58 58 54 49 44 40 39 41 43 43 43 40 35 32 32 31 32 33 32 30 27 25 25 24 23 21 20 19 18 19 20 23 24
43 40 38 37 39 39 35 30 29 32 37 39 40 40 38 38 38 36 35 35 35 37 43 47 49 53 57 57 54 52 53 56 58 54 47 41 40 43 45 44 42 38 32 30 31 31 32 33 33 32 30 28 28 26 23 22 21 20 19 19 20 23 25
43 41 41 41 40 36 33 31 30 32 37 41 44 44 41 38 37 38 38 37 34 33 35 38 40 45 50 50 49 51 50 50 54 56 50 44 42 44 45 44 40 34 30 30 31 31 33 35 34 34 32 31 29 27 25 25 24 23 23 22 23 25 27
44 41 41 39 38 38 36 35 37 39 38 38 42 42 37 34 37 38 37 36 36 34 33 35 39 42 44 43 44 49 49 47 50 54 52 49 48 48 48 44 38 33 32 33 33 33 35 36 36 35 34 32 30 29 28 27 26 26 26 26 26 28 30
44 42 41 41 41 42 40 39 41 41 37 36 38 37 33 31 35 39 38 36 38 37 35 37 40 41 41 41 42 46 46 44 47 49 47 47 47 46 46 44 39 34 34 36 35 35 36 37 38 37 35 34 32 31 31 29 28 29 29 29 30 30 32
47 45 44 44 43 43 42 40 40 40 38 36 33 32 32 31 34 40 41 39 39 38 37 38 39 39 41 41 39 40 41 41 44 45 42 42 42 41 42 44 41 37 37 38 38 38 38 39 39 37 37 36 34 33 34 33 32 32 32 32 33 33 35
46 45 44 43 42 41 40 40 41 41 41 38 33 32 33 33 33 37 39 37 36 36 36 37 37 38 40 39 35 32 33 36 42 43 40 38 39 41 43 44 43 40 40 40 40 40 40 40 39 37 37 36 36 36 37 36 35 35 35 35 36 37 37
46 45 42 40 41 41 39 38 40 40 39 37 34 32 32 32 31 32 35 36 35 34 34 36 35 34 34 34 32 31 32 36 40 39 36 35 37 41 44 46 46 44 42 42 42 42 42 41 39 37 37 37 38 39 39 39 39 39 38 38 39 40 41
53 49 45 42 42 42 39 38 39 37 35 35 34 30 28 29 30 30 31 34 35 33 34 35 33 32 31 31 33 36 38 39 36 33 32 33 35 40 44 46 48 47 44 44 44 44 43 42 41 40 40 40 40 40 41 42 43 41 40 41 42 43 44
55 54 51 48 46 42 39 39 39 36 33 32 31 29 29 30 30 29 29 31 33 33 33 32 30 30 31 32 32 35 38 38 34 31 31 32 35 40 43 46 49 49 48 46 45 45 45 44 43 43 42 42 43 43 43 44 44 43 43 45 47 48 48
53 54 53 51 48 45 43 41 38 36 34 32 30 32 34 34 32 30 29 30 31 33 34 33 31 30 31 29 27 28 31 32 31 32 32 32 35 38 41 46 51 51 49 47 46 46 46 45 44 44 44 43 43 43 43 44 44 45 46 49 51 52 49
52 51 51 52 50 48 47 43 38 37 36 33 33 36 37 36 34 31 31 31 30 32 35 35 32 31 31 29 26 25 26 28 31 33 34 33 33 35 39 44 49 50 48 46 46 46 45 44 44 44 43 44 44 43 44 44 45 47 49 51 55 54 47
51 50 51 51 49 47 46 42 39 40 38 34 34 37 38 37 35 32 31 31 30 32 36 35 32 31 32 31 29 28 27 28 32 36 37 35 34 35 36 39 43 46 47 46 46 46 45 44 44 44 44 44 44 44 45 46 48 51 53 54 55 53 45
51 50 51 51 49 47 46 42 38 37 36 34 35 38 39 39 36 32 31 31 31 32 35 34 32 32 32 32 32 31 29 30 33 36 37 37 35 35 36 37 40 44 46 47 47 47 46 46 45 44 45 45 45 46 48 50 52 55 54 54 55 52 44
53 51 51 50 48 47 47 43 39 35 34 34 35 38 40 39 36 33 33 32 32 34 35 34 33 33 33 32 31 30 30 30 33 35 36 35 34 35 36 38 40 43 46 47 47 47 47 46 45 45 46 47 47 48 50 51 53 55 55 57 57 51 42
50 50 51 50 48 47 47 45 42 38 35 33 33 36 39 38 36 36 35 33 33 35 35 33 32 33 33 32 31 31 31 31 33 35 36 36 36 37 37 38 40 43 45 46 46 47 46 45 45 46 47 48 49 50 50 50 52 54 56 57 54 46 40
46 46 48 49 48 47 44 42 41 39 35 33 33 35 37 37 36 36 35 33 32 32 32 32 31 32 34 34 34 34 35 34 34 35 36 37 37 38 39 40 41 43 44 45 46 47 47 47 48 48 48 49 50 50 50 50 50 49 49 49 47 43 41
43 41 40 42 42 41 39 38 39 38 36 35 35 33 32 34 35 36 36 36 35 33 32 32 32 33 36 37 37 38 39 37 37 37 38 39 39 40 41 43 44 45 46 48 48 49 49 49 48 47 47 48 48 49 49 49 47 45 43 43 43 44 44
39 36 35 35 34 33 34 35 36 36 36 36 33 30 29 32 34 36 37 37 35 35 34 34 34 36 38 40 41 42 42 40 39 38 39 40 41 42 44 45 47 48 48 48 47 48 48 48 48 47 47 46 46 47 47 46 46 45 43 42 43 46 46
40 35 32 31 29 29 31 32 32 33 34 34 30 27 29 32 34 36 38 37 34 33 35 36 37 39 41 43 45 46 46 44 42 43 44 43 42 43 44 45 46 47 47 45 44 44 45 45 46 47 47 46 46 46 46 47 47 47 46 45 47 48 48

ECMWFFLT2_500_spd_036.txt.gz
Wind_Speed
31 31 29 31 34 37 36 38 45 46 46 47 42 36 32 29 32 34 29 29 30 27 26 28 30 28 26 28 27 27 31 29 25 25 22 20 20 20 21 20 16 14 15 16 15 11 9 7 7 9 12 14 15 16 18 18 18 18 18 19 19 19 19
31 33 32 31 34 36 35 37 42 42 43 45 41 38 37 35 36 34 30 33 32 28 29 29 30 29 27 29 27 26 31 29 24 25 24 20 20 21 21 21 19 18 16 16 14 10 6 5 5 7 9 11 12 13 13 14 14 15 16 18 18 18 18
29 32 35 33 33 36 40 38 33 34 43 47 42 40 41 40 40 34 30 32 30 28 30 30 31 32 29 29 30 29 31 27 24 25 24 22 18 16 18 20 21 21 19 17 14 9 6 5 5 7 8 9 10 9 10 11 12 14 15 16 16 16 17
27 32 37 35 33 35 41 42 33 30 39 46 44 45 46 45 41 36 32 31 29 29 29 28 29 32 32 30 29 30 30 26 25 24 23 24 20 12 15 18 20 21 19 17 15 11 8 8 8 9 9 10 9 9 9 10 11 12 13 14 14 15 16
29 38 39 35 34 34 37 45 45 36 33 37 40 43 47 49 45 39 35 33 32 28 24 25 27 32 37 36 32 34 32 28 27 22 21 27 23 15 20 21 21 22 21 19 17 14 12 11 12 13 12 11 10 9 9 9 11 11 12 13 13 13 14
31 40 41 36 35 33 32 40 48 46 36 30 33 39 41 44 48 46 39 36 34 26 21 24 26 31 38 39 37 36 32 30 31 25 23 32 32 24 24 26 25 26 25 23 21 17 15 14 14 14 14 13 11 10 10 10 10 10 11 12 13 13 13
32 31 36 39 37 34 32 34 41 48 47 37 32 38 41 42 46 46 42 42 39 29 23 24 25 30 38 37 33 29 24 28 33 27 29 36 36 29 26 26 27 27 25 25 24 19 16 15 15 16 16 16 14 12 11 12 11 11 11 12 13 13 13
36 27 31 39 38 37 37 36 37 42 50 49 41 35 37 40 42 40 41 49 48 38 30 27 28 31 33 29 25 21 17 21 24 21 25 29 28 27 26 25 26 28 27 27 27 22 17 16 16 17 17 18 18 15 13 14 14 14 13 12 13 14 13
42 34 31 36 38 40 40 38 37 37 41 48 49 39 31 34 39 40 41 45 46 41 36 32 29 28 27 27 27 23 17 18 20 20 24 28 28 30 30 26 25 28 29 28 28 25 19 16 16 16 17 18 20 18 16 15 16 17 15 13 12 14 14
48 44 40 38 37 39 40 37 36 36 36 40 47 47 40 36 37 38 40 38 36 37 38 37 33 27 25 30 31 24 20 23 25 26 29 32 33 33 31 27 26 30 30 28 28 27 22 18 16 15 16 18 19 20 18 17 18 18 17 14 12 13 15
48 47 44 38 33 35 38 38 34 35 36 36 39 45 49 47 40 38 41 41 34 30 30 34 39 33 25 23 23 23 24 27 29 32 35 34 32 33 33 29 27 31 33 31 30 29 24 21 19 18 17 17 19 21 21 19 19 19 19 17 13 13 15
47 45 41 34 31 31 33 35 35 33 33 35 36 42 49 52 49 47 46 44 42 36 28 27 36 38 32 29 29 27 30 33 32 33 37 36 34 36 35 31 30 33 34 33 33 32 27 23 23 21 19 19 19 21 21 21 20 20 20 18 15 14 16
45 46 43 35 31 30 30 29 31 32 31 34 38 40 44 47 49 51 49 45 46 46 39 35 32 34 34 37 40 36 35 37 35 35 39 39 38 39 36 31 30 33 35 36 36 34 30 27 26 23 21 20 19 20 21 20 20 19 19 20 18 15 17
42 44 46 42 35 31 29 28 28 29 29 32 36 40 39 39 41 47 50 50 48 47 45 44 41 36 32 32 36 38 38 38 36 37 40 40 40 42 41 37 35 35 37 39 38 36 34 31 29 27 24 22 21 21 21 20 20 20 19 20 19 17 17
44 40 41 44 44 41 36 31 30 32 30 30 32 34 37 38 39 42 45 49 51 49 47 45 44 44 41 37 34 33 33 35 33 34 38 41 41 41 40 40 40 41 41 42 40 39 38 36 34 31 27 25 24 24 23 21 22 21 20 21 21 18 17
49 41 35 38 42 44 44 40 35 32 34 33 31 32 35 38 40 39 37 41 46 46 44 44 44 45 47 46 42 36 35 37 34 31 36 42 41 40 40 41 42 43 44 44 42 41 40 39 38 34 29 27 27 26 24 22 22 22 20 21 21 19 18
49 44 39 34 33 38 47 50 44 37 33 33 34 36 35 33 34 36 38 40 41 39 39 42 42 40 42 47 49 46 42 40 36 33 36 40 41 41 41 41 42 43 44 45 44 43 42 41 39 37 32 30 28 26 24 23 23 23 21 20 21 20 19
52 50 45 39 36 42 50 49 45 41 37 33 34 35 33 30 31 33 34 36 37 37 39 43 43 41 39 42 48 52 50 48 44 39 36 37 40 44 43 40 39 40 40 43 44 44 43 42 40 38 35 32 29 28 26 25 24 24 22 20 20 19 18
54 52 48 46 48 50 48 42 39 40 40 39 38 36 33 32 33 32 31 32 34 37 41 42 43 45 46 45 49 52 52 53 53 48 43 40 40 44 47 44 40 37 36 38 43 45 44 43 42 41 38 34 31 29 28 27 26 25 24 20 19 18 16
54 52 49 52 55 50 44 40 37 37 40 41 41 43 41 35 32 36 38 38 39 38 36 35 32 34 40 45 51 56 54 53 55 55 53 52 49 48 49 47 44 44 40 36 37 41 45 45 45 43 41 39 35 30 28 28 27 26 25 21 20 19 18
52 53 51 51 52 49 46 44 40 39 41 41 40 43 44 41 41 44 45 45 46 43 38 35 32 30 33 36 42 51 55 55 57 59 58 57 57 57 56 55 54 54 51 45 39 38 43 46 47 46 46 44 38 32 30 30 29 28 26 23 21 21 20
43 49 50 49 51 51 48 45 44 45 45 43 43 44 45 47 49 47 43 45 49 46 41 41 41 37 35 35 33 33 39 45 49 54 59 61 61 61 60 60 58 57 56 55 48 42 42 45 46 47 49 49 42 35 32 32 31 29 28 26 24 23 22
39 47 49 50 53 52 49 46 46 47 46 45 44 42 40 43 44 40 39 45 48 46 42 43 44 40 38 39 31 22 27 36 34 33 42 52 58 60 59 56 54 55 58 58 51 46 46 47 46 47 51 52 46 37 33 33 32 30 29 28 26 25 26
39 44 48 50 51 49 48 47 45 46 48 47 45 41 39 41 39 36 39 46 47 44 44 45 46 44 41 39 33 28 32 38 33 28 32 40 47 55 56 51 49 53 56 54 49 47 48 49 48 47 50 53 48 39 35 35 34 32 31 30 29 29 31
42 40 42 46 49 46 44 45 45 48 49 46 43 44 44 44 41 36 38 45 46 44 43 45 46 46 45 41 38 39 36 31 30 33 35 38 42 46 47 48 51 54 52 46 44 47 49 49 49 50 52 53 49 41 38 37 36 34 34 32 32 34 35
50 45 42 42 46 45 43 44 47 50 48 44 44 46 45 42 40 36 34 40 44 43 41 44 45 46 46 44 43 44 39 31 31 36 37 39 42 41 41 47 52 53 48 43 42 47 50 51 51 53 53 53 49 43 40 39 37 36 35 34 34 36 37
54 50 47 46 45 44 44 47 49 49 48 46 45 44 42 40 39 37 35 36 40 42 41 42 43 44 45 46 44 45 43 38 38 38 35 37 42 42 41 46 49 47 45 44 44 47 51 53 53 54 53 52 49 45 42 40 38 37 36 36 36 37 38
58 53 49 47 44 40 43 48 50 50 49 47 42 40 41 42 39 38 40 41 41 41 41 42 43 43 44 44 43 43 44 44 43 42 36 34 40 43 41 42 46 45 43 45 47 50 53 55 55 54 53 51 49 46 44 41 39 38 38 38 39 39 39
61 58 51 48 45 41 44 48 49 50 48 43 40 41 42 42 39 37 41 44 43 42 41 42 44 44 44 44 42 41 45 46 45 43 39 36 41 46 42 41 46 49 47 48 51 54 56 57 56 54 52 50 49 47 44 42 40 40 40 41 41 41 40
61 60 55 53 51 49 49 49 49 51 48 41 40 43 42 40 39 37 37 40 42 42 41 41 43 44 45 45 43 43 44 43 41 40 39 39 43 46 45 45 49 52 52 53 56 58 58 57 55 53 51 49 48 46 43 42 41 42 44 44 43 43 42
58 60 58 56 55 53 54 55 53 52 50 45 40 41 41 40 39 37 35 35 39 42 41 40 41 43 43 43 43 42 42 40 39 37 38 41 45 47 49 51 52 51 51 54 57 58 58 57 54 52 49 46 45 44 44 44 44 45 46 45 44 43 43
54 57 58 56 56 55 56 58 57 52 50 48 42 37 36 37 37 37 35 34 36 40 40 40 41 42 43 42 43 42 41 41 41 39 38 41 46 48 50 52 52 51 48 49 51 53 55 55 52 48 45 43 43 45 45 46 46 46 46 45 44 44 44
54 54 56 57 58 57 55 55 56 53 50 48 45 40 38 37 36 36 36 35 35 37 38 39 40 41 42 42 42 42 41 40 40 39 38 40 44 46 47 48 49 48 45 42 42 43 45 47 47 46 45 45 46 46 46 46 46 46 46 45 45 45 46
55 54 55 56 56 55 54 53 54 54 51 47 44 42 40 39 38 36 36 36 37 36 37 38 39 39 40 40 41 43 43 42 42 42 41 42 45 46 45 44 46 45 40 34 31 32 35 39 43 45 45 45 45 45 45 46 47 47 47 47 47 47 48
56 55 54 53 51 50 49 48 48 49 48 45 43 42 40 39 37 36 35 35 36 36 38 39 39 38 37 38 41 43 40 37 39 41 39 39 43 43 38 35 38 40 35 28 26 30 34 37 41 43 44 44 45 46 46 47 47 47 48 48 48 49 50
53 54 52 49 48 49 47 43 42 43 44 43 41 41 40 39 38 36 35 34 33 35 37 39 39 38 37 38 41 40 33 26 25 28 28 26 28 29 27 27 32 36 34 30 30 33 36 38 40 41 42 44 45 46 47 48 48 48 49 49 49 50 49
48 50 50 47 47 49 49 45 42 42 42 41 40 39 40 40 38 36 34 33 32 33 34 35 37 38 38 38 39 39 37 34 29 26 25 22 18 18 22 28 33 36 36 35 35 37 38 39 40 41 42 43 45 47 48 49 49 50 51 51 50 48 46